Location: Unspecified
(52.4292°N, 19.3359°E)
Time: 17:28:04
(UTC+02:00)

Transit 2A Rocket - Pass Details

Date: 27 May 2024
Orbit: 583 x 910 km, 66.7° (Epoch: 22 June)

Event Time Altitude Azimuth Distance (km) Brightness Sun altitude
Rises 08:44:20 0° 310° (NW) 3,294 7.8 35.6°
Reaches altitude 10° 08:47:15 10° 326° (NW) 2,421 7.3 36.1°
Maximum altitude 08:51:35 22° 16° (NNE) 1,788 7.2 36.7°
Drops below altitude 10° 08:56:07 10° 66° (ENE) 2,552 8.5 37.4°
Sets 08:59:17 0° 81° (E) 3,520 9.2 37.8°
